Fargo, ND

10:57 AM CST on February 19, 2017 (GMT -0600)
Hector International

Weather History for KFAR - March, 2015

Change the Weather History Date:

Monday, March 9, 2015

  Actual Average Record
Temperature  
Mean Temperature 45 °F 24 °F  
Max Temperature 58 °F 32 °F 58 °F (2015)
Min Temperature 31 °F 16 °F -26 °F (1948)
Degree Days  
Heating Degree Days 20 41  
Month to date heating degree days 391 385  
Since 1 July heating degree days 6807 7063  
Cooling Degree Days 0 0  
Month to date cooling degree days 0 0  
Year to date cooling degree days 0 0  
Moisture  
Dew Point 28 °F    
Average Humidity 58    
Maximum Humidity 85    
Minimum Humidity 30    
Precipitation  
Precipitation 0.00 in 0.05 in 0.50 in (1898)
Month to date precipitation 0.02 0.35  
Year to date precipitation 0.99 1.66  
Snow  
Snow 0.00 in 0.30 in 6.10 in (1993)
Month to date snowfall 0.2 3.2  
Since 1 July snowfall 15.8 41.2  
Snow Depth 0.00 in    
Sea Level Pressure  
Sea Level Pressure 29.86 in    
Wind  
Wind Speed 11 mph (SW)    
Max Wind Speed 20 mph    
Max Gust Speed 23 mph    
Visibility 10 miles    
Events      
T = Trace of Precipitation, MM = Missing Value Source: NWS Daily Summary

Daily Weather History Graph

Daily Weather History Graph

Search for Another Location

Airport or City:

Trip Planner

Search our weather history database for the weather conditions in past years. The results will help you decide how hot, cold, wet, or windy it might be!

Date:

Astronomy

Mar. 09, 2015 Rise Set
Actual Time 7:52 AM CDT 7:24 PM CDT
Civil Twilight 7:21 AM CDT 7:54 PM CDT
Nautical Twilight 6:46 AM CDT 8:29 PM CDT
Astronomical Twilight 6:11 AM CDT 9:05 PM CDT
Moon 11:33 PM CDT (3/9) 9:31 AM CDT (3/9)
Length of Visible Light 12h 32m
Length of Day
11h 31m
Waning Gibbous, 86% of the Moon is Illuminated
Mar 9
Waning Gibbous
Mar 13
Last Quarter
Mar 20
New
Mar 27
First Quarter
Apr 4
Full

Hourly Weather History & Observations

Time (CDT) Temp. Windchill Dew Point Humidity Pressure Visibility Wind Dir Wind Speed Gust Speed Precip Events Conditions
12:53 AM 39.0 °F 33.4 °F 25.0 °F 57% 29.95 in 10.0 mi South 8.1 mph - N/A   Overcast
1:53 AM 39.9 °F 33.4 °F 27.0 °F 60% 29.92 in 10.0 mi South 10.4 mph - N/A   Overcast
2:53 AM 39.0 °F 31.8 °F 28.0 °F 65% 29.89 in 10.0 mi SSE 11.5 mph - N/A   Overcast
3:53 AM 37.4 °F 28.5 °F 28.4 °F 70% 29.85 in 10.0 mi South 15.0 mph - N/A   Scattered Clouds
4:53 AM 37.0 °F 28.9 °F 27.0 °F 67% 29.86 in 10.0 mi SSW 12.7 mph - N/A   Clear
5:53 AM 35.1 °F 26.4 °F 28.0 °F 76% 29.86 in 10.0 mi WSW 12.7 mph - N/A   Clear
6:53 AM 33.1 °F 25.5 °F 27.0 °F 78% 29.88 in 10.0 mi SW 9.2 mph - N/A   Clear
7:53 AM 30.9 °F 22.2 °F 27.0 °F 85% 29.89 in 10.0 mi West 10.4 mph - N/A   Clear
8:53 AM 34.0 °F 28.8 °F 28.0 °F 79% 29.91 in 10.0 mi West 5.8 mph - N/A   Clear
9:53 AM 37.9 °F 31.5 °F 28.9 °F 70% 29.92 in 10.0 mi West 9.2 mph - N/A   Clear
10:53 AM 43.0 °F 40.3 °F 28.0 °F 56% 29.91 in 10.0 mi West 4.6 mph - N/A   Clear
11:53 AM 46.9 °F - 27.0 °F 46% 29.91 in 10.0 mi WSW 6.9 mph - N/A   Clear
12:53 PM 51.1 °F - 27.0 °F 39% 29.90 in 10.0 mi SW 8.1 mph - N/A   Clear
1:53 PM 55.0 °F - 24.1 °F 30% 29.88 in 10.0 mi SW 6.9 mph - N/A   Clear
2:53 PM 55.9 °F - 26.1 °F 32% 29.85 in 10.0 mi SW 9.2 mph - N/A   Clear
3:53 PM 57.9 °F - 28.0 °F 32% 29.83 in 10.0 mi SSW 13.8 mph - N/A   Clear
4:53 PM 57.9 °F - 28.9 °F 33% 29.82 in 10.0 mi SSW 15.0 mph - N/A   Clear
5:53 PM 55.9 °F - 30.9 °F 39% 29.80 in 10.0 mi SSW 13.8 mph - N/A   Clear
6:53 PM 53.1 °F - 30.9 °F 43% 29.80 in 10.0 mi SSW 13.8 mph - N/A   Clear
7:53 PM 46.9 °F - 32.0 °F 56% 29.80 in 10.0 mi South 12.7 mph - N/A   Clear
8:53 PM 45.0 °F 38.2 °F 32.0 °F 60% 29.79 in 10.0 mi South 15.0 mph - N/A   Clear
9:53 PM 42.1 °F 35.2 °F 32.0 °F 67% 29.78 in 10.0 mi South 12.7 mph - N/A   Clear
10:53 PM 41.0 °F 35.8 °F 32.0 °F 70% 29.78 in 10.0 mi SW 8.1 mph - N/A   Clear
11:53 PM 37.0 °F 31.0 °F 30.9 °F 79% 29.78 in 10.0 mi SSW 8.1 mph - N/A   Clear